Regional Weather Roundup
Issued by NWS

Current Version | Previous Version | Text Only | Print | Product List | Glossary On
Versions: 1 2 3 4 5 6 7 8 9 10 11 12 13 14 15 16 17 18 19 20 21 22 23 24 25 26 27
000
ASCA42 TJSJ 251410
RWRPR
PUERTO RICO/U.S. VIRGIN ISLANDS HOURLY WEATHER ROUNDUP
NATIONAL WEATHER SERVICE SAN JUAN PR
1000 AM AST THU MAY 25 2017

PRZ001>002-007>008-010-251500-
PUERTO RICO

CITY           SKY/WX    TMP DP  RH WIND       PRES   REMARKS
SAN JUAN LMM   MOSUNNY   86  72  62 E12       30.10S HX  92
AGUADILLA      MOSUNNY   84  73  70 E14       30.11S HX  91
CEIBA          CLOUDY    84  75  74 E9        30.13R HX  92
$$

VIZ001>002-251500-
U.S. VIRGIN ISLANDS

CITY           SKY/WX    TMP DP  RH WIND       PRES   REMARKS
CHARLOTTE AMA  MOSUNNY   88  73  62 SE13      30.10R HX  96
CHRISTIANSTED  MOSUNNY   86  73  66 E16       30.11R HX  93
$$

HOURLY WEATHER ROUNDUP FOR THE NEWS MEDIA

CITY           SKY/WX    TMP DP  RH WIND       PRES   REMARKS
ORLANDO        CLOUDY    77  63  61 W15       29.84R
NEW YORK       LGT RAIN  57  57 100 E20       29.65F FOG
NEWARK         LGT RAIN  56  55  97 E12       29.63F FOG
CHICAGO        CLOUDY    57  51  80 N13       29.61R
HARTFORD       LGT RAIN  57  57 100 E14G23    29.79F FOG
BOSTON         LGT RAIN  54  52  93 E16       29.87F
DALLAS         SUNNY     70  52  52 S15G22    29.72F
PHILADELPHIA   LGT RAIN  57  55  93 E14       29.57
LOS ANGELES    CLOUDY    61  49  64 SE5       29.85S
WASHINGTON DC  CLOUDY    61  57  87 VRB5      29.50S



USA.gov is the U.S. government's official web portal to all federal, state and local government web resources and services.